This demonstration page uses our WeatherBlox Daily Observations layout. Learn more.

Left ArrowRight Arrow

38.83388, -104.82136

Hourly Observations for January 17, 2022

Temp ( °F °C ) Dew Point ( °F °C ) Humidity (%) Winds ( mph kmh ) Pressure ( in mb ) Visibility ( mi km ) Precip ( " mm )
12:54 am 00:54 Clear 29 -1.7 11 -11.7 47 47 SSE 8 13 30.07 1018 10 16 0.00 0.00
1:54 am 01:54 Clear 25 -3.9 10 -12.2 53 53 NE 6 9 30.07 1018 10 16 0.00 0.00
2:54 am 02:54 Clear 23 -5 11 -11.7 60 60 NE 6 9 30.08 1019 10 16 0.00 0.00
3:54 am 03:54 Mostly Clear 21 -6.1 11 -11.7 65 65 NNE 9 15 30.07 1018 10 16 0.00 0.00
4:54 am 04:54 Mostly Clear 20 -6.7 12 -11.1 71 71 NNE 12 19 30.08 1019 10 16 0.00 0.00
5:54 am 05:54 Mostly Clear 21 -6.1 12 -11.1 68 68 NNE 10 17 30.10 1019 10 16 0.00 0.00
6:54 am 06:54 Partly Cloudy 23 -5 12 -11.1 63 63 NNE 8 13 30.11 1020 10 16 0.00 0.00
7:54 am 07:54 Mostly Cloudy 30 -1.1 13 -10.6 49 49 N 3 6 30.10 1019 10 16 0.00 0.00
8:54 am 08:54 Partly Cloudy 41 5 14 -10 33 33 VRB 3 6 30.04 1017 10 16 0.00 0.00
9:54 am 09:54 Partly Cloudy 51 10.6 15 -9.4 24 24 Calm 29.98 1015 10 16 0.00 0.00
10:54 am 10:54 Mostly Sunny 58 14.4 11 -11.7 15 15 ESE 7 11 29.96 1014 10 16 0.00 0.00
11:54 am 11:54 Partly Cloudy 60 15.6 6 -14.4 11 11 E 10 17 29.90 1012 10 16 0.00 0.00
12:54 pm 12:54 Partly Cloudy 60 15.6 10 -12.2 14 14 SSE 9 15 29.88 1012 10 16 0.00 0.00
1:54 pm 13:54 Mostly Cloudy 61 16.1 6 -14.4 11 11 S 10 17 29.88 1012 10 16 0.00 0.00
2:54 pm 14:54 Mostly Cloudy 60 15.6 4 -15.6 10 10 SSE 12 19 29.89 1012 10 16 0.00 0.00
3:54 pm 15:54 Mostly Cloudy 58 14.4 7 -13.9 13 13 S 14 22 29.90 1013 10 16 0.00 0.00
4:54 pm 16:54 Mostly Cloudy 48 8.9 10 -12.2 21 21 S 12 19 29.97 1015 10 16 0.00 0.00
5:54 pm 17:54 Partly Cloudy 46 7.8 9 -12.8 22 22 S 6 9 29.98 1015 10 16 0.00 0.00
6:54 pm 18:54 Partly Cloudy 45 7.2 10 -12.2 24 24 E 6 9 29.99 1016 10 16 0.00 0.00
7:54 pm 19:54 Partly Cloudy 42 5.6 9 -12.8 25 25 E 6 9 29.98 1015 10 16 0.00 0.00
8:54 pm 20:54 Mostly Cloudy 39 3.9 10 -12.2 30 30 E 5 7 29.93 1014 10 16 0.00 0.00
9:54 pm 21:54 Partly Cloudy 41 5 10 -12.2 28 28 VRB 3 6 29.87 1012 10 16 0.00 0.00
10:54 pm 22:54 Partly Cloudy 42 5.6 10 -12.2 27 27 WSW 5 7 29.82 1010 10 16 0.00 0.00
11:54 pm 23:54 Mostly Cloudy 33 0.6 11 -11.7 40 40 N 3 6 29.84 1010 10 16 0.00 0.00

Powered by AerisWeather